Hauptseite
METAR-TAF:

METAR-TAF

Flughäfen :

Payerne, Schweiz

Militärflugplatz Payerne

Breite: 46-49N, Länge: 006-57E, Höhe: 490 m

Beobachtung

Neuester Wetterbericht von vor 1 Stunde und 0 Minuten, um 10:50 UTC
Wind 1 kt aus unterschiedlichen Richtungen
Temperatur 9°C
Luftfeuchtigkeit 66%
Luftdruck 1028 hPa
Sichtweite 10 km oder mehr
Leicht bewölkt in der Höhe von 3300 ft
Durchbrochene Bewölkung in der Höhe von 3900 ft

METAR: LSMP 231050Z VRB01KT 9999 FEW033 BKN039 09/03 Q1028 RMK BLU

Zeit: 12:50 (11:50 UTC)


TAF: fehlend

Wetterbeobachtungen und Prognosen von mehr als 4000 Flughäfen (METAR und TAF Bericht).

Die verfügbaren Stationen werden durch gelbe und rote Markierungen auf der Karte dargestellt.

Führen Sie die Maus auf sie, um den Namen der Station zu sehen.

Darauf klicken, um die Beobachtung von Wetterbeobachtungen und Prognosen zu sehen.

Um die Karte zu ändern : klicken Sie auf den grünen Tasten mit einem schwarzen Kreuz Zum Vergrößern, auf den grünen Button mit einem Gedankenstrich zu verkleinern, oder auf die grünen Pfeile für benachbarte Karten.


METAR-TAF: